This demonstration page uses our WeatherBlox Daily Observations layout. Learn more.

Left ArrowRight Arrow

41.86663, -103.66717

Hourly Observations for July 10, 2018

Temp ( °F °C ) Dew Point ( °F °C ) Humidity (%) Winds ( mph kmh ) Pressure ( in mb ) Visibility ( mi km ) Precip ( " mm )
12:53 am 00:53 Clear 69 20.6 57 13.9 66 66 E 9 15 30.04 1017 10 16.0934 N/A
1:53 am 01:53 Clear 68 20 58 14.4 70 70 ESE 8 13 30.03 1017 10 16.0934 N/A
2:53 am 02:53 Clear 68 20 58 14.4 70 70 E 10 17 30.02 1017 10 16.0934 N/A
3:53 am 03:53 Clear 67 19.4 58 14.4 73 73 E 5 7 30 1016 10 16.0934 N/A
4:53 am 04:53 Clear 65 18.3 57 13.9 76 76 undefined N/A 30 1016 10 16.0934 N/A
5:53 am 05:53 Sunny 65 18.3 57 13.9 76 76 ESE 9 15 30 1016 10 16.0934 N/A
6:53 am 06:53 Sunny 69 20.6 59 15 70 70 E 9 15 29.99 1016 10 16.0934 N/A
7:53 am 07:53 Sunny 73 22.8 60 15.6 64 64 ESE 12 19 29.99 1016 10 16.0934 N/A
8:53 am 08:53 Sunny 76 24.4 60 15.6 58 58 ESE 10 17 30.01 1016 10 16.0934 N/A
9:53 am 09:53 Sunny 81 27.2 62 16.7 53 53 E 14 22 29.99 1016 10 16.0934 N/A
10:53 am 10:53 Sunny 87 30.6 64 17.8 46 46 E 14 22 29.96 1015 10 16.0934 N/A
11:53 am 11:53 Sunny 93 33.9 53 11.7 26 26 SSE 16 26 29.94 1014 10 16.0934 N/A
12:53 pm 12:53 Sunny 94 34.4 51 10.6 23 23 SSE 17 28 29.93 1013 10 16.0934 N/A
1:53 pm 13:53 Sunny 97 36.1 53 11.7 23 23 SSE 15 24 29.89 1012 10 16.0934 N/A
2:53 pm 14:53 Sunny 98 36.7 50 10 20 20 SSE 16 26 29.87 1012 10 16.0934 N/A
3:53 pm 15:53 Sunny 98 36.7 50 10 20 20 SSE 14 22 29.85 1011 10 16.0934 N/A
4:53 pm 16:53 Sunny 97 36.1 51 10.6 21 21 SSE 18 30 29.84 1010 10 16.0934 N/A
5:53 pm 17:53 Sunny 95 35 50 10 22 22 SSE 17 28 29.82 1010 10 16.0934 N/A
6:53 pm 18:53 Sunny 92 33.3 52 11.1 26 26 SE 15 24 29.81 1010 10 16.0934 N/A
7:53 pm 19:53 Sunny 83 28.3 56 13.3 40 40 ESE 8 13 29.83 1010 10 16.0934 N/A
8:53 pm 20:53 Clear 76 24.4 57 13.9 52 52 ESE 10 17 29.85 1011 10 16.0934 N/A
9:53 pm 21:53 Clear 73 22.8 56 13.3 55 55 ESE 8 13 29.87 1011 10 16.0934 N/A
10:53 pm 22:53 Clear 73 22.8 55 12.8 53 53 E 9 15 29.87 1011 10 16.0934 N/A
11:53 pm 23:53 Clear 79 26.1 54 12.2 42 42 SSE 14 22 29.85 1011 10 16.0934 N/A

Powered by AerisWeather